STARLINK-30226 (57497 NORAD) Tracking and Keplerian Element Data

This shows tracking and keplerian element data for the satellite.

Feedback or suggestion? Click here.




ElementValue
Catalog57497
NameSTARLINK-30226
Epoch Orbit2523
Epoch Day13.08845263
Epoch Year2024
RAAN331.6257
Inclination43.0031
Eccentricity8.08E-05
Argument of Perigee259.6237
Mean Anonmoly100.4514
Mean Motion15.02538947
Decay Rate6.742E-05
L11 57497U 23113C 24013.08845263 .00006742 00000+0 51365-3 0 9999
L22 57497 43.0031 331.6257 0000808 259.6237 100.4514 15.02538947 25233



Live tracking and technical data element details for STARLINK-30226 (NORAD 57497). STARLINK-30226 can be tracked NOW for your location showing map with azimuth and elevation plus other details from your city location.







IsCatalogInMostPopularTable: catalog: 57497, numindb: 6
Update: records affected: 1



GetName: 57497 STARLINK-30226

Hit Count: updated at: Thu, 22 Feb 2024 00:40:22 GMT